Regional Weather Roundup
Issued by NWS Charleston, WV

Home | Current Version | Previous Version | Text Only | Print | Product List | Glossary Off
Versions: 1 2 3 4 5 6 7 8 9 10 11 12 13 14 15 16 17 18 19 20 21 22 23 24 25 26 27 28 29 30 31 32 33 34 35 36 37 38 39 40 41 42 43 44 45 46 47 48 49 50

000
ASUS41 KRLX 042010
RWRRLX
West Virginia Regional Weather Roundup
National Weather Service Charleston WV
400 PM EDT SAT JUL 04 2015

Note: "fair" indicates few or no clouds below 12,000 feet with no
significant weather and/or obstructions to visibility.

WVZ003-042100-
Northern Panhandle of West Virginia

CITY           SKY/WX    TMP DP  RH WIND       PRES   REMARKS
WHEELING       SUNNY     78  57  48 NW7       29.98F
$$

WVZ009-042100-
Northwest West Virginia

CITY           SKY/WX    TMP DP  RH WIND       PRES   REMARKS
PARKERSBURG    MOSUNNY   81  62  52 N3        30.01S
$$

WVZ006-042100-
Western West Virginia

CITY           SKY/WX    TMP DP  RH WIND       PRES   REMARKS
HUNTINGTON     CLOUDY    76  66  71 CALM      30.00R
$$

WVZ015-042100-
West Central West Virginia

CITY           SKY/WX    TMP DP  RH WIND       PRES   REMARKS
CHARLESTON     PTSUNNY   80  65  59 CALM      30.00S
$$

WVZ022-031-042100-
North Central West Virginia

CITY           SKY/WX    TMP DP  RH WIND       PRES   REMARKS
CLARKSBURG     SUNNY     80  63  55 W10       29.98F
MORGANTOWN     MOSUNNY   81  60  48 VRB6      29.98S
$$

WVZ025-035-042-045-042100-
Southern West Virginia

CITY           SKY/WX    TMP DP  RH WIND       PRES   REMARKS
BECKLEY        CLOUDY    71  63  75 NW3       30.07S
LOGAN          CLOUDY    73  68  83 CALM      30.00F
BLUEFIELD      LGT RAIN  73  62  68 VRB3      30.08S
LEWISBURG      CLOUDY    76  63  62 W8        30.04F
$$

WVZ047-042100-
Northern Mountains of West Virginia

CITY           SKY/WX    TMP DP  RH WIND       PRES   REMARKS
ELKINS         CLOUDY    74  63  68 VRB6      30.03S
$$

WVZ052-042100-
Eastern Panhandle of West Virginia

CITY           SKY/WX    TMP DP  RH WIND       PRES   REMARKS
MARTINSBURG    CLOUDY    77  68  73 N7        29.93R
PETERSBURG     PTSUNNY   82  60  46 W9        29.94F
$$



USA.gov is the U.S. government's official web portal to all federal, state and local government web resources and services.